Date Time,Air Temp,Sky Temp,Clarity,Light Level,Rain Sensor,Readings
2011-03-01 00:00:56,11.6,-2.2,13.7,0.0,2.4,112
2011-03-01 00:05:56,11.5,-2.2,13.8,0.0,2.4,111
2011-03-01 00:10:56,11.5,-2.4,13.9,0.0,2.4,112
2011-03-01 00:15:56,11.5,-2.7,14.2,0.0,2.4,112
2011-03-01 00:20:56,11.5,-2.5,14.0,0.0,2.4,111
2011-03-01 00:25:56,11.5,-2.5,14.0,0.0,2.4,112
2011-03-01 00:30:56,11.5,-2.5,14.0,0.0,2.4,111
2011-03-01 00:35:56,11.5,-2.6,14.1,0.0,2.4,112
2011-03-01 00:40:56,11.5,-2.9,14.4,0.0,2.4,111
2011-03-01 00:45:56,11.5,-2.8,14.4,0.0,2.4,112
2011-03-01 00:50:56,11.6,-2.4,14.0,0.0,2.4,112
2011-03-01 00:55:56,11.6,-2.4,14.0,0.0,2.4,111
2011-03-01 01:00:56,11.6,-2.3,14.0,0.0,2.4,112
2011-03-01 01:05:56,11.6,-2.4,14.0,0.0,2.4,112
2011-03-01 01:10:56,11.6,-2.0,13.6,0.0,2.4,111
2011-03-01 01:15:56,11.7,-1.7,13.4,0.0,2.4,112
2011-03-01 01:20:56,11.7,-2.8,14.5,0.0,2.4,112
2011-03-01 01:25:56,11.7,-2.5,14.1,0.0,2.4,111
2011-03-01 01:30:56,11.7,-1.8,13.4,0.0,2.4,111
2011-03-01 01:35:56,11.7,-2.1,13.8,0.0,2.4,112
2011-03-01 01:40:56,11.7,-2.7,14.4,0.0,2.4,112
2011-03-01 01:45:56,11.7,-4.4,16.1,0.0,2.4,112
2011-03-01 01:50:56,12.5,-7.8,20.3,0.0,2.3,112
2011-03-01 01:55:56,15.3,-10.8,26.0,0.0,2.0,111
2011-03-01 02:00:56,15.9,-21.4,37.3,0.0,2.2,112
2011-03-01 02:05:56,16.0,-23.3,39.2,0.0,2.3,111
2011-03-01 02:10:56,15.9,-23.4,39.3,0.0,2.3,111
2011-03-01 02:15:56,15.8,-23.8,39.6,0.0,2.3,111
2011-03-01 02:20:56,15.8,-22.6,38.3,0.0,2.2,112
2011-03-01 02:25:56,15.8,-18.7,34.4,0.0,2.2,112
2011-03-01 02:30:56,15.8,-18.1,33.8,0.0,2.2,111
2011-03-01 02:35:56,15.7,-22.2,37.9,0.0,2.2,112
2011-03-01 02:40:56,15.7,-23.6,39.2,0.0,2.2,111
2011-03-01 02:45:56,15.6,-22.3,37.9,0.0,2.2,111
2011-03-01 02:50:56,15.7,-17.7,33.4,0.0,2.2,112
2011-03-01 02:55:56,15.7,-18.6,34.4,0.0,2.2,111
2011-03-01 03:00:56,15.8,-20.2,36.0,0.0,2.3,112
2011-03-01 03:05:56,15.8,-17.1,32.8,0.0,2.3,112
2011-03-01 03:10:56,15.8,-16.5,32.3,0.0,2.3,111
2011-03-01 03:15:56,15.9,-12.4,28.3,0.0,2.3,111
2011-03-01 03:20:56,16.0,-9.0,25.0,0.0,2.3,112
2011-03-01 03:25:56,16.1,-11.0,27.1,0.0,2.4,112
2011-03-01 03:30:56,16.1,-8.4,24.5,0.0,2.4,111
2011-03-01 03:35:56,16.2,-7.3,23.5,0.0,2.4,112
2011-03-01 03:40:56,16.3,-5.6,21.8,0.0,2.4,112
2011-03-01 03:45:56,16.3,-5.2,21.5,0.0,2.4,111
2011-03-01 03:50:56,16.4,-5.5,21.8,0.0,2.4,111
2011-03-01 03:55:56,16.4,-6.0,22.4,0.0,2.4,112
2011-03-01 04:00:56,16.4,-4.7,21.2,0.0,2.4,112
2011-03-01 04:05:56,16.4,-6.7,23.1,0.0,2.4,112
2011-03-01 04:10:56,16.5,-5.0,21.5,0.0,2.4,111
2011-03-01 04:15:56,16.5,-5.2,21.7,0.0,2.4,112
2011-03-01 04:20:56,16.6,-5.5,22.1,0.0,2.4,111
2011-03-01 04:25:56,16.5,-5.1,21.6,0.0,2.4,112
2011-03-01 04:30:56,16.6,-4.2,20.8,0.0,2.4,111
2011-03-01 04:35:56,16.6,-4.7,21.3,0.0,2.3,112
2011-03-01 04:40:56,16.7,-5.5,22.1,0.0,2.3,111
2011-03-01 04:45:56,16.6,-5.8,22.4,0.0,2.4,112
2011-03-01 04:50:56,16.6,-6.5,23.1,0.0,2.3,112
2011-03-01 04:55:56,16.5,-7.4,23.9,0.0,2.4,112
2011-03-01 05:00:56,16.4,-6.3,22.7,0.0,2.4,111
2011-03-01 05:05:56,16.5,-6.0,22.5,0.0,2.4,112
2011-03-01 05:10:56,16.4,-5.3,21.7,0.0,2.4,111
2011-03-01 05:15:56,16.4,-4.3,20.7,0.0,2.4,112
2011-03-01 05:20:56,16.4,-5.0,21.4,0.0,2.4,112
2011-03-01 05:25:56,16.4,-4.9,21.3,0.0,2.4,111
2011-03-01 05:30:56,16.0,-3.9,19.9,0.0,2.4,112
2011-03-01 05:35:56,13.3,-3.7,17.0,0.0,1.9,112
2011-03-01 05:40:56,12.1,-3.1,15.2,0.0,2.2,112
2011-03-01 05:45:56,11.8,-3.1,14.9,0.1,2.3,112
2011-03-01 05:50:56,11.6,-3.2,14.8,0.1,2.3,112
2011-03-01 05:55:56,11.5,-3.4,15.0,0.2,2.4,112
2011-03-01 06:00:56,11.5,-3.6,15.1,0.4,2.4,111
2011-03-01 06:05:56,11.4,-3.8,15.3,0.7,2.4,112
2011-03-01 06:10:56,11.4,-4.0,15.5,1.4,2.4,112
2011-03-01 06:15:56,11.4,-4.4,15.8,3.1,2.4,112
2011-03-01 06:20:56,11.2,-4.9,16.2,6.1,2.4,111
2011-03-01 06:25:56,11.4,-5.1,16.5,11.0,2.4,111
2011-03-01 06:30:56,11.4,-4.4,15.8,16.3,2.4,112
2011-03-01 06:35:56,11.5,-3.7,15.2,21.0,2.4,112
2011-03-01 06:40:56,11.8,-3.7,15.5,24.8,2.4,112
2011-03-01 06:45:56,11.5,-3.5,15.0,26.9,2.4,111
2011-03-01 06:50:56,11.5,-3.5,15.0,28.3,2.4,112
2011-03-01 06:55:56,11.5,-3.2,14.8,29.2,2.4,112
2011-03-01 07:00:56,11.6,-3.4,14.9,30.0,2.4,112
2011-03-01 07:05:56,11.5,-3.4,14.9,30.5,2.4,111
2011-03-01 07:10:56,11.6,-3.3,14.9,30.8,2.4,112
2011-03-01 07:15:56,11.6,-3.4,14.9,31.0,2.4,112
2011-03-01 07:20:56,11.6,-3.3,14.9,31.1,2.4,111
2011-03-01 07:25:56,11.6,-2.8,14.5,31.1,2.4,112
2011-03-01 07:30:56,11.6,-3.0,14.6,31.4,2.4,112
2011-03-01 07:35:56,11.6,-3.0,14.6,31.6,2.4,112
2011-03-01 07:40:56,11.7,-3.2,14.8,31.8,2.4,112
2011-03-01 07:45:56,11.7,-3.1,14.8,31.8,2.3,112
2011-03-01 07:50:56,11.7,-3.5,15.1,31.9,2.3,112
2011-03-01 07:55:56,11.6,-3.2,14.9,31.9,2.3,111
2011-03-01 08:00:56,11.7,-3.1,14.8,32.0,2.3,112
2011-03-01 08:05:56,11.7,-3.5,15.1,32.0,2.3,112
2011-03-01 08:10:56,11.7,-3.5,15.2,32.1,2.4,112
2011-03-01 08:15:56,11.8,-3.4,15.2,32.2,2.4,111
2011-03-01 08:20:56,11.8,-3.6,15.4,32.2,2.4,112
2011-03-01 08:25:56,11.8,-3.5,15.3,32.3,2.3,111
2011-03-01 08:30:56,11.9,-3.3,15.2,32.3,2.3,112
2011-03-01 08:35:56,11.9,-3.3,15.2,32.3,2.3,112
2011-03-01 08:40:56,12.2,-3.1,15.4,32.3,2.3,112
2011-03-01 08:45:56,12.0,-3.6,15.5,32.3,2.3,112
2011-03-01 08:50:56,11.9,-3.7,15.6,32.3,2.3,111
2011-03-01 08:55:56,12.0,-3.4,15.4,32.3,2.3,112
2011-03-01 09:00:56,12.0,-3.3,15.3,32.3,2.3,112
2011-03-01 09:05:56,12.0,-3.6,15.6,32.3,2.3,112
2011-03-01 09:10:56,12.0,-3.4,15.4,32.3,2.3,112
2011-03-01 09:15:56,12.0,-3.5,15.5,32.4,2.4,111
2011-03-01 09:20:56,12.1,-3.3,15.4,32.4,2.3,112
2011-03-01 09:25:56,12.1,-3.2,15.3,32.4,2.4,112
2011-03-01 09:30:56,12.2,-3.0,15.1,32.3,2.4,112
2011-03-01 09:35:56,12.2,-3.2,15.4,32.3,2.4,112
2011-03-01 09:40:56,12.2,-3.2,15.4,32.3,2.4,112
2011-03-01 09:45:56,12.2,-3.1,15.2,32.3,2.4,112
2011-03-01 09:50:56,12.2,-3.1,15.3,32.3,2.4,112
2011-03-01 09:55:56,12.2,-3.3,15.5,32.4,2.3,112
2011-03-01 10:00:56,12.2,-3.1,15.2,32.4,2.3,111
2011-03-01 10:05:56,12.3,-3.0,15.3,32.5,2.3,112
2011-03-01 10:10:56,12.4,-3.2,15.7,32.5,2.2,112
2011-03-01 10:15:56,12.6,-3.1,15.6,32.5,1.8,112
2011-03-01 10:20:56,12.7,-3.3,15.9,32.5,1.7,112
2011-03-01 10:25:56,12.8,-3.2,16.0,32.5,1.7,111
2011-03-01 10:30:56,13.0,-2.9,15.9,32.5,1.8,112
2011-03-01 10:35:56,13.1,-3.1,16.2,32.5,1.8,112
2011-03-01 10:40:56,13.2,-3.8,17.0,32.5,2.0,112
2011-03-01 10:45:56,13.3,-4.3,17.5,32.5,2.1,111
2011-03-01 10:50:56,13.3,-4.0,17.3,32.5,2.2,112
2011-03-01 10:55:56,13.4,-3.9,17.4,32.5,2.2,112
2011-03-01 11:00:56,13.5,-3.5,17.0,32.5,2.2,112
2011-03-01 11:05:56,13.7,-3.5,17.2,32.5,2.3,112
2011-03-01 11:10:56,13.7,-3.4,17.1,32.5,2.3,112
2011-03-01 11:15:56,13.8,-3.7,17.4,32.6,2.3,112
2011-03-01 11:20:56,14.0,-3.1,17.1,32.6,2.4,112
2011-03-01 11:25:56,14.1,-3.6,17.7,32.6,2.4,112
2011-03-01 11:30:56,14.1,-3.5,17.6,32.6,2.4,111
2011-03-01 11:35:56,14.1,-2.8,16.8,32.5,2.4,112
2011-03-01 11:40:56,14.1,-3.0,17.1,32.5,2.4,112
2011-03-01 11:45:56,14.1,-2.0,16.0,32.5,2.4,111
2011-03-01 11:50:56,14.1,-2.0,16.1,32.5,2.4,112
2011-03-01 11:55:56,14.1,-1.9,16.0,32.5,2.4,111
2011-03-01 12:00:56,14.0,-2.3,16.3,32.5,2.4,112
2011-03-01 12:05:56,13.7,-2.1,15.8,32.5,2.4,112
2011-03-01 12:10:56,13.6,-2.0,15.5,32.5,2.3,111
2011-03-01 12:15:56,13.5,-1.9,15.5,32.5,2.3,112
2011-03-01 12:20:56,13.5,-1.6,15.2,32.5,2.3,112
2011-03-01 12:25:56,13.5,-2.2,15.8,32.5,2.3,111
2011-03-01 12:30:56,13.4,-2.3,15.7,32.4,2.2,112
2011-03-01 12:35:56,13.3,-2.4,15.7,32.4,2.2,112
2011-03-01 12:40:56,13.1,-2.2,15.3,32.4,2.1,111
2011-03-01 12:45:56,13.0,-1.6,14.6,32.4,1.9,112
2011-03-01 12:50:56,13.0,-1.4,14.4,32.4,1.8,111
2011-03-01 12:55:56,13.6,-1.9,15.5,32.4,1.8,112
2011-03-01 13:00:56,12.9,-2.0,14.9,32.4,1.8,112
2011-03-01 13:05:56,12.9,-2.0,14.9,32.4,1.8,111
2011-03-01 13:10:56,12.9,-2.0,14.9,32.5,1.8,112
2011-03-01 13:15:56,13.0,-2.1,15.1,32.4,1.8,111
2011-03-01 13:20:56,13.0,-1.9,14.9,32.4,1.8,112
2011-03-01 13:25:56,13.0,-1.7,14.7,32.4,1.8,111
2011-03-01 13:30:56,13.0,-1.5,14.5,32.4,1.8,112
2011-03-01 13:35:56,13.0,-1.8,14.8,32.4,1.8,112
2011-03-01 13:40:56,12.9,-1.7,14.6,32.4,1.8,111
2011-03-01 13:45:56,13.6,-2.0,15.6,32.4,1.8,112
2011-03-01 13:50:56,13.0,-1.7,14.6,32.4,1.8,112
2011-03-01 13:55:56,13.0,-1.4,14.4,32.3,1.8,112
2011-03-01 14:00:56,13.0,-1.9,14.9,32.3,1.8,111
2011-03-01 14:05:56,12.9,-1.8,14.7,32.4,1.7,112
2011-03-01 14:10:56,12.9,-2.0,14.9,32.4,1.8,111
2011-03-01 14:15:56,12.9,-1.8,14.7,32.4,1.7,112
2011-03-01 14:20:56,12.9,-1.3,14.2,32.4,1.7,111
2011-03-01 14:25:56,13.0,-1.5,14.5,32.3,1.8,112
2011-03-01 14:30:56,13.0,-1.5,14.5,32.3,1.8,112
2011-03-01 14:35:56,13.0,-1.6,14.6,32.3,1.8,111
2011-03-01 14:40:56,13.0,-1.6,14.6,32.3,1.7,112
2011-03-01 14:45:57,12.9,-1.8,14.7,32.3,1.7,111
2011-03-01 14:50:57,12.8,-1.6,14.4,32.3,1.7,112
2011-03-01 14:55:57,12.8,-1.9,14.7,32.3,1.7,112
2011-03-01 15:00:57,12.8,-1.8,14.6,32.3,1.7,111
2011-03-01 15:05:57,12.8,-1.5,14.3,32.3,1.7,112
2011-03-01 15:10:57,12.8,-1.9,14.8,32.3,1.7,112
2011-03-01 15:15:57,12.9,-3.3,16.1,32.5,1.7,111
2011-03-01 15:20:57,14.1,-8.6,22.7,32.5,2.1,112
2011-03-01 15:25:57,17.2,-7.9,25.1,32.5,2.3,112
2011-03-01 15:30:57,17.9,-6.4,24.3,32.5,2.3,111
2011-03-01 15:35:57,18.2,-5.8,24.1,32.5,2.3,112
2011-03-01 15:40:57,18.4,-4.5,22.8,32.5,2.3,112
2011-03-01 15:45:57,18.4,-4.1,22.5,32.5,2.3,112
2011-03-01 15:50:57,18.3,-4.1,22.4,32.5,2.3,112
2011-03-01 15:55:57,18.2,-3.6,21.8,32.4,2.3,112
2011-03-01 16:00:57,17.9,-2.4,20.2,32.2,2.3,111
2011-03-01 16:05:57,15.1,-2.0,17.0,32.1,2.3,112
2011-03-01 16:10:57,13.4,-2.2,15.6,32.2,2.3,112
2011-03-01 16:15:57,12.9,-2.2,15.1,32.2,2.0,111
2011-03-01 16:20:57,12.7,-2.3,15.1,32.2,1.8,112
2011-03-01 16:25:57,12.6,-3.1,15.7,32.3,1.8,112
2011-03-01 16:30:57,12.6,-3.3,15.8,32.3,1.7,112
2011-03-01 16:35:57,12.5,-3.2,15.7,32.2,1.7,112
2011-03-01 16:40:57,12.4,-2.9,15.3,32.1,1.7,112
2011-03-01 16:45:57,12.3,-2.6,14.9,31.7,1.9,110
2011-03-01 16:50:57,12.3,-2.7,15.0,31.6,2.1,112
2011-03-01 16:55:57,12.2,-2.5,14.7,31.5,2.3,112
2011-03-01 17:00:57,12.2,-2.4,14.6,31.7,2.3,111
2011-03-01 17:05:57,12.2,-2.8,15.0,31.9,2.3,112
2011-03-01 17:10:57,12.2,-3.3,15.5,31.8,2.3,112
2011-03-01 17:15:57,12.1,-2.9,15.0,31.6,2.3,112
2011-03-01 17:20:57,12.1,-3.3,15.5,31.4,2.3,111
2011-03-01 17:25:57,12.1,-3.0,15.1,31.2,2.3,112
2011-03-01 17:30:57,12.0,-3.0,15.1,30.6,2.3,112
2011-03-01 17:35:57,12.0,-2.9,14.9,29.7,2.3,112
2011-03-01 17:40:57,11.9,-2.9,14.8,28.6,2.3,112
2011-03-01 17:45:57,11.9,-2.6,14.5,27.2,2.3,111
2011-03-01 17:50:57,11.9,-2.6,14.5,25.2,2.3,112
2011-03-01 17:55:57,11.9,-3.2,15.1,22.8,2.3,112
2011-03-01 18:00:57,11.9,-2.7,14.6,18.0,2.3,111
2011-03-01 18:05:57,11.9,-3.0,14.9,12.9,2.3,112
2011-03-01 18:10:57,11.9,-3.0,14.9,7.9,2.3,112
2011-03-01 18:15:57,11.9,-2.9,14.8,4.3,2.3,112
2011-03-01 18:20:57,11.8,-3.2,15.0,2.3,2.3,112
2011-03-01 18:25:57,11.8,-3.0,14.8,1.2,2.4,111
2011-03-01 18:30:57,11.8,-3.3,15.1,0.6,2.3,112
2011-03-01 18:35:57,11.8,-3.1,14.9,0.3,2.4,112
2011-03-01 18:40:57,11.8,-2.9,14.7,0.2,2.4,112
2011-03-01 18:45:57,11.8,-2.8,14.6,0.1,2.4,111
2011-03-01 18:50:57,11.8,-3.2,14.9,0.1,2.4,112
2011-03-01 18:55:57,11.7,-3.1,14.8,0.1,2.4,112
2011-03-01 19:00:57,11.7,-3.3,15.0,0.1,2.4,111
2011-03-01 19:05:57,11.7,-3.3,15.0,0.1,2.4,112
2011-03-01 19:10:57,12.3,-3.4,15.7,0.1,2.4,112
2011-03-01 19:15:57,11.7,-3.0,14.7,0.1,2.4,112
2011-03-01 19:20:57,11.7,-3.2,15.0,0.1,2.4,112
2011-03-01 19:25:57,11.7,-3.3,15.0,0.1,2.4,112
2011-03-01 19:30:57,11.7,-3.2,14.8,0.1,2.4,112
2011-03-01 19:35:57,11.7,-3.2,14.9,0.1,2.4,111
2011-03-01 19:40:57,11.7,-3.2,14.9,0.1,2.4,112
2011-03-01 19:45:57,11.7,-2.9,14.6,0.1,2.3,112
2011-03-01 19:50:57,11.7,-3.1,14.8,0.1,2.3,112
2011-03-01 19:55:57,11.7,-3.4,15.1,0.1,2.4,111
2011-03-01 20:00:57,11.7,-3.6,15.2,0.1,2.4,113
2011-03-01 20:05:57,11.7,-3.1,14.8,0.1,2.4,111
2011-03-01 20:10:57,11.7,-2.8,14.6,0.1,2.4,112
2011-03-01 20:15:57,11.8,-3.0,14.8,0.1,2.4,112
2011-03-01 20:20:57,11.7,-3.1,14.8,0.0,2.4,111
2011-03-01 20:25:57,11.7,-3.6,15.3,0.1,2.4,113
2011-03-01 20:30:57,11.7,-3.5,15.2,0.1,2.4,111
2011-03-01 20:35:57,11.7,-3.2,14.9,0.1,2.4,112
2011-03-01 20:40:57,11.7,-3.2,14.9,0.1,2.4,112
2011-03-01 20:45:57,11.7,-3.2,14.9,0.1,2.4,112
2011-03-01 20:50:57,11.7,-3.1,14.8,0.1,2.4,112
2011-03-01 20:55:57,11.7,-2.8,14.5,0.1,2.3,111
2011-03-01 21:00:57,11.7,-3.2,14.8,0.0,2.3,112
2011-03-01 21:05:57,11.7,-3.0,14.6,0.0,2.3,112
2011-03-01 21:10:57,11.6,-3.2,14.8,0.0,2.3,112
2011-03-01 21:15:57,11.6,-3.2,14.7,0.0,2.3,112
2011-03-01 21:20:57,11.6,-3.0,14.6,0.0,2.3,112
2011-03-01 21:25:57,11.6,-3.0,14.6,0.0,2.3,111
2011-03-01 21:30:57,11.6,-3.3,14.9,0.0,2.3,112
2011-03-01 21:35:57,11.6,-2.9,14.4,0.0,2.3,112
2011-03-01 21:40:57,11.6,-3.3,14.8,0.0,2.3,111
2011-03-01 21:45:57,11.5,-3.4,14.9,0.0,2.3,113
2011-03-01 21:50:57,11.5,-3.5,15.0,0.0,2.3,111
2011-03-01 21:55:57,11.5,-3.2,14.7,0.0,2.3,112
2011-03-01 22:00:57,11.5,-2.9,14.4,0.0,2.3,112
2011-03-01 22:05:57,11.5,-3.1,14.6,0.0,2.3,112
2011-03-01 22:10:57,11.4,-3.2,14.6,0.0,2.3,112
2011-03-01 22:15:57,11.4,-3.5,14.9,0.0,2.3,111
2011-03-01 22:20:57,11.4,-3.6,15.0,0.0,2.3,112
2011-03-01 22:25:57,11.4,-3.8,15.1,0.0,2.4,112
2011-03-01 22:30:57,11.3,-3.6,14.9,0.0,2.3,111
2011-03-01 22:35:57,11.3,-3.7,15.1,0.0,2.6,112
2011-03-01 22:40:57,11.3,-4.3,15.6,0.0,2.4,112
2011-03-01 22:45:57,11.3,-3.3,14.6,0.0,2.5,112
2011-03-01 22:50:57,11.3,-3.4,14.7,0.0,2.6,111
2011-03-01 22:55:57,11.3,-2.7,14.0,0.0,2.7,112
2011-03-01 23:00:57,11.4,-2.5,13.9,0.0,2.7,112
2011-03-01 23:05:57,11.3,-2.5,13.8,0.0,2.7,111
2011-03-01 23:10:57,11.3,-2.5,13.8,0.0,2.6,112
2011-03-01 23:15:57,11.3,-2.9,14.2,0.0,2.7,112
2011-03-01 23:20:57,11.3,-2.9,14.2,0.0,2.7,111
2011-03-01 23:25:57,11.3,-2.7,14.0,0.0,2.6,112
2011-03-01 23:30:57,11.3,-3.4,14.7,0.0,2.6,112
2011-03-01 23:35:57,11.2,-3.3,14.5,0.0,2.6,112
2011-03-01 23:40:57,11.2,-3.2,14.4,0.0,2.5,111
2011-03-01 23:45:57,11.2,-2.7,13.9,0.0,2.5,112
2011-03-01 23:50:57,11.2,-2.8,14.0,0.0,2.5,112
2011-03-01 23:55:57,11.2,-2.7,13.9,0.0,2.4,111
